Location: Deurze
(52.9838°N, 6.6090°E)
Time: 18:23:48
(UTC+00:00)

Cosmos 1092 Rocket - Pass Details

Date: 11 March 2026
Orbit: 953 x 995 km, 83.0° (Epoch: 20 April)

Event Time Altitude Azimuth Distance (km) Brightness Sun altitude
Rises 18:53:36 0° 196° (SSW) 3,689 7.1 -13.3°
Reaches altitude 10° 18:56:08 10° 199° (SSW) 2,749 6.4 -13.6°
Maximum altitude 19:02:26 70° 283° (WNW) 1,059 4.4 -14.6°
Drops below altitude 10° 19:08:48 10° 7° (N) 2,774 6.5 -15.5°
Sets 19:11:22 0° 10° (N) 3,726 7.1 -15.9°
